Location: Charbonni�res
(45.9952°N, 2.9982°E)
Time: 18:15:24
(UTC+00:00)

USA-17 - Pass Details

Date: 29 November 2020
Orbit: 389 x 1776 km, 63.3° (Epoch: 17 January)

Event Time Altitude Azimuth Distance (km) Brightness Sun altitude
Exits shadow 05:49:27 - 229° (SW) 2,418 7.8 -13.2°
Reaches altitude 10° 05:51:06 10° 233° (SW) 1,716 7.0 -12.9°
Maximum altitude 05:54:42 52° 311° (NW) 547 4.4 -12.3°
Drops below altitude 10° 05:57:44 10° 30° (NNE) 1,455 7.1 -11.8°
Sets 05:59:41 0° 35° (NE) 2,292 8.2 -11.5°
